Plattsburgh, NY

2:00 PM EDT on May 22, 2017 (GMT -0400)
Plattsburgh International

Weather History for KPBG - July, 2013

Change the Weather History Date:

Saturday, July 20, 2013

  Actual Average Record
Temperature  
Mean Temperature 75 °F 70 °F  
Max Temperature 84 °F 80 °F 97 °F (1991)
Min Temperature 66 °F 59 °F 49 °F (2012)
Degree Days  
Heating Degree Days 0 0  
Month to date heating degree days 12  
Since 1 June heating degree days 97  
Since 1 July heating degree days 12  
Cooling Degree Days 10 5  
Month to date cooling degree days 188 94  
Year to date cooling degree days 263 164  
Since 1 June cooling degree days 243 156  
Growing Degree Days 26 (Base 50)    
Moisture  
Dew Point 64 °F    
Average Humidity 59    
Maximum Humidity 84    
Minimum Humidity 34    
Precipitation  
Precipitation 0.53 in - 1.12 in (2008)
Month to date precipitation 3.07  
Year to date precipitation 20.15  
Sea Level Pressure  
Sea Level Pressure 29.67 in    
Wind  
Wind Speed 6 mph (West)    
Max Wind Speed 17 mph    
Max Gust Speed 25 mph    
Visibility 8 miles    
Events Fog , Rain    
T = Trace of Precipitation, MM = Missing Value Source: NWS Daily Summary

Daily Weather History Graph

Daily Weather History Graph

Search for Another Location

Airport or City:

Trip Planner

Search our weather history database for the weather conditions in past years. The results will help you decide how hot, cold, wet, or windy it might be!

Date:

Astronomy

Jul. 20, 2013 Rise Set
Actual Time 5:27 AM EDT 8:32 PM EDT
Civil Twilight 4:52 AM EDT 9:07 PM EDT
Nautical Twilight 4:07 AM EDT 9:51 PM EDT
Astronomical Twilight 3:13 AM EDT 10:45 PM EDT
Moon 6:32 PM EDT (7/20) 3:05 AM EDT (7/20)
Length of Visible Light 16h 14m
Length of Day
15h 04m
Waxing Gibbous, 93% of the Moon is Illuminated
Jul 20
Waxing Gibbous
Jul 22
Full
Jul 29
Last Quarter
Aug 6
New
Aug 14
First Quarter

Hourly Weather History & Observations

Time (EDT) Temp. Heat Index Dew Point Humidity Pressure Visibility Wind Dir Wind Speed Gust Speed Precip Events Conditions
12:53 AM 71.1 °F - 66.9 °F 87% 29.65 in 10.0 mi Calm Calm - N/A   Clear
1:53 AM 75.9 °F - 64.0 °F 67% 29.65 in 10.0 mi SSW 6.9 mph - N/A   Clear
2:53 AM 75.9 °F - 63.0 °F 64% 29.65 in 10.0 mi Variable 5.8 mph - N/A   Clear
3:53 AM 75.9 °F - 64.0 °F 67% 29.64 in 10.0 mi SSW 4.6 mph - N/A   Clear
4:53 AM 75.0 °F - 64.0 °F 69% 29.63 in 10.0 mi Variable 5.8 mph - N/A   Partly Cloudy
5:53 AM 73.9 °F - 64.0 °F 71% 29.65 in 10.0 mi South 4.6 mph - N/A   Clear
6:53 AM 73.9 °F - 64.0 °F 71% 29.67 in 9.0 mi Variable 5.8 mph - 0.00 in Rain Light Rain
7:53 AM 73.9 °F - 64.0 °F 71% 29.67 in 10.0 mi SSW 8.1 mph - 0.00 in   Mostly Cloudy
8:53 AM 75.9 °F - 64.0 °F 67% 29.65 in 10.0 mi SW 9.2 mph 17.3 mph N/A   Mostly Cloudy
9:53 AM 78.1 °F - 66.0 °F 66% 29.63 in 10.0 mi SW 8.1 mph - N/A   Partly Cloudy
10:53 AM 80.1 °F 82.1 °F 66.0 °F 62% 29.64 in 10.0 mi SW 8.1 mph 19.6 mph N/A   Scattered Clouds
11:53 AM 79.0 °F - 66.9 °F 66% 29.63 in 10.0 mi West 10.4 mph 19.6 mph N/A   Partly Cloudy
12:32 PM 73.4 °F - 69.8 °F 88% 29.64 in 1.8 mi NW 15.0 mph 23.0 mph 0.14 in Rain Heavy Rain
12:37 PM 69.8 °F - 68.0 °F 94% 29.64 in 0.8 mi WNW 12.7 mph 25.3 mph 0.33 in Rain Heavy Rain
12:44 PM 69.8 °F - 69.8 °F 100% 29.63 in 0.5 mi Variable 3.5 mph 23.0 mph 0.52 in Fog , Rain Heavy Rain
12:47 PM 69.8 °F - 69.8 °F 100% 29.63 in 0.8 mi Calm Calm - 0.52 in Rain Rain
12:50 PM 71.6 °F - 71.6 °F 100% 29.63 in 2.0 mi South 3.5 mph - 0.52 in Rain Light Rain
12:53 PM 73.0 °F - 71.1 °F 93% 29.63 in 6.0 mi Calm Calm - 0.52 in Rain Light Rain
1:53 PM 81.0 °F 82.7 °F 64.9 °F 58% 29.63 in 10.0 mi Variable 5.8 mph - 0.00 in   Clear
2:53 PM 81.0 °F 81.9 °F 62.1 °F 52% 29.65 in 10.0 mi West 5.8 mph - N/A   Clear
3:53 PM 84.0 °F 83.3 °F 57.0 °F 40% 29.65 in 10.0 mi WNW 10.4 mph 20.7 mph N/A   Partly Cloudy
4:53 PM 82.0 °F - 52.0 °F 35% 29.68 in 10.0 mi NW 13.8 mph 23.0 mph N/A   Clear
5:53 PM 81.0 °F 80.4 °F 53.1 °F 38% 29.68 in 10.0 mi WNW 9.2 mph - N/A   Clear
6:53 PM 80.1 °F 80.1 °F 55.0 °F 42% 29.71 in 10.0 mi WNW 4.6 mph - N/A   Clear
7:53 PM 73.9 °F - 60.1 °F 62% 29.72 in 10.0 mi Calm Calm - N/A   Partly Cloudy
8:53 PM 72.0 °F - 61.0 °F 68% 29.75 in 10.0 mi NNW 6.9 mph - 0.00 in Rain Light Rain
9:53 PM 70.0 °F - 60.1 °F 71% 29.79 in 10.0 mi NW 5.8 mph - 0.00 in Rain Light Rain
10:53 PM 68.0 °F - 62.1 °F 81% 29.81 in 10.0 mi West 5.8 mph - 0.01 in Rain Light Rain
11:53 PM 66.0 °F - 62.1 °F 87% 29.83 in 10.0 mi West 3.5 mph - 0.00 in   Mostly Cloudy